User: anonymous   Login
Location: Madrid
(40.4000°N, 3.6830°W)
Time: 20:39:40
(UTC+02:00)
Language:

ISS - Orbit

View from above orbital plane
View from above orbital plane
View from above satellite
View from above satellite

Ground track
Ground track

The orbit data is extracted from the following two-line orbital elements,

1 25544U 98067A   18110.65016918  .00016717  00000-0  10270-3 0  9026
2 25544  51.6379 305.5429 0002498 354.8967   5.2160 15.54138821 29560
Epoch (UTC): 20 April 2018 15:36:14
Eccentricity: 0.0002498
inclination: 51.6379°
perigee height: 403 km
apogee height: 406 km
right ascension of ascending node: 305.5429°
argument of perigee: 354.8967°
revolutions per day: 15.54138821
mean anomaly at epoch: 5.2160°
orbit number at epoch: 2956

The dashed part of the orbit path shows where the satellite is in the earth's shadow,  

DLR